Location: Crane Creek
(37.9716°N, 119.9816°W)
Time: 16:36:59
(UTC+00:00)

Cosmos 1515 - Visible Passes

Search period start: 08 September 2024 00:00
Search period end: 18 September 2024 00:00
Orbit: 437 x 443 km, 82.5° (Epoch: 07 September)

Date Brightness Start Highest point End Pass type
(mag) Time Alt. Az. Time Alt. Az. Time Alt. Az.
08 Sep 6.7 12:33:39 10° SE 12:35:37 15° E 12:37:35 10° NE visible
10 Sep 4.8 12:48:58 10° SSE 12:52:10 41° E 12:55:23 10° NNE visible
11 Sep 6.5 12:11:27 10° SE 12:13:34 16° E 12:15:40 10° NE visible
12 Sep 3.4 13:05:10 10° SSW 13:08:30 58° W 13:11:50 10° N visible
13 Sep 4.6 12:26:21 10° SSE 12:29:34 44° E 12:32:48 10° NNE visible
14 Sep 6.4 11:48:31 10° SE 11:50:42 16° E 11:52:52 10° NE visible
15 Sep 3.4 12:42:03 10° SSW 12:45:21 56° W 12:48:42 10° N visible
16 Sep 4.4 12:03:22 13° SSE 12:06:10 45° E 12:09:25 10° NNE visible
17 Sep 6.2 11:25:26 13° ESE 11:27:02 16° E 11:29:14 10° NE visible
17 Sep 4.8 12:58:54 13° WSW 13:00:57 20° WNW 13:03:30 10° NNW visible
